FW1957 Weather Reports


Display with metric or nautical units.
time (UTC)temp
F
wind
direction
speed
MPH
gust
MPH
rain 1hr
in
rain 24hr
in
rain mn
in
humidity
%
barometer
mb
20260505034216 50 285 0.0 1.0 0.00 0.00 0.00 75 1007.2
20260505033711 50 285 0.0 3.0 0.00 0.00 0.00 75 1007.2
20260505033214 50 286 1.0 3.0 0.00 0.00 0.00 75 1007.2
20260505032706 50 285 2.0 3.0 0.00 0.00 0.00 75 1007.3
20260505031706 50 270 2.0 4.0 0.00 0.00 0.00 75 1007.4
20260505031218 50 261 3.0 4.0 0.00 0.00 0.00 75 1007.4
20260505030719 50 251 3.0 4.0 0.00 0.00 0.00 75 1007.4
20260505030210 50 244 2.0 4.0 0.00 0.00 0.00 74 1007.4
20260505025205 50 259 3.0 4.0 0.00 0.00 0.00 74 1007.4
20260505024712 50 259 3.0 6.0 0.00 0.00 0.00 74 1007.4
20260505024220 50 265 2.0 6.0 0.00 0.00 0.00 74 1007.4
20260505023714 51 301 3.0 6.0 0.00 0.00 0.00 73 1007.5
20260505023217 51 261 2.0 4.0 0.00 0.00 0.00 73 1007.5
20260505022717 51 266 2.0 3.0 0.00 0.00 0.00 73 1007.5
20260505021210 51 277 1.0 2.0 0.00 0.00 0.00 72 1007.6
20260505020708 51 277 1.0 3.0 0.00 0.00 0.00 72 1007.6
20260505020207 52 281 1.0 3.0 0.00 0.00 0.00 72 1007.6
20260505014206 53 259 1.0 2.0 0.00 0.00 0.00 70 1007.7
20260505013712 53 343 1.0 4.0 0.00 0.00 0.00 69 1007.7
20260505013208 53 343 1.0 4.0 0.00 0.00 0.00 70 1007.7
20260505012209 53 320 3.0 5.0 0.00 0.00 0.00 70 1007.8
20260505011713 53 294 3.0 5.0 0.00 0.00 0.00 70 1007.7
20260505011210 54 269 3.0 5.0 0.00 0.00 0.00 69 1007.8
20260505010707 54 270 2.0 5.0 0.00 0.00 0.00 68 1007.8
20260505010217 54 274 3.0 5.0 0.00 0.00 0.00 68 1007.8
20260505005717 54 243 3.0 5.0 0.00 0.00 0.00 67 1007.8
20260505004718 55 271 3.0 6.0 0.00 0.00 0.00 67 1007.9
20260505004213 55 275 2.0 6.0 0.00 0.00 0.00 66 1007.9
20260505003708 56 279 2.0 6.0 0.00 0.00 0.00 65 1007.9
20260505003214 56 275 3.0 6.0 0.00 0.00 0.00 64 1007.9
20260505002218 56 267 3.0 7.0 0.00 0.00 0.00 63 1008.1
20260505001706 57 254 4.0 7.0 0.00 0.00 0.00 64 1008.1
20260505000207 58 228 3.0 5.0 0.00 0.00 0.00 60 1008.2
20260504235711 58 235 3.0 6.0 0.00 0.00 0.00 60 1008.2
20260504235205 58 228 4.0 6.0 0.00 0.00 0.00 59 1008.3
20260504234706 58 228 4.0 6.0 0.00 0.00 0.00 59 1008.3
20260504234218 58 228 2.0 3.0 0.00 0.00 0.00 59 1008.4
20260504233712 59 195 1.0 4.0 0.00 0.00 0.00 59 1008.4
20260504232711 59 203 2.0 6.0 0.00 0.00 0.00 58 1008.4
20260504232219 60 190 2.0 7.0 0.00 0.00 0.00 57 1008.5
20260504231243 60 224 4.0 6.0 0.00 0.00 0.00 56 1008.6
20260504230211 61 227 2.0 4.0 0.00 0.00 0.00 54 1008.7
20260504225706 62 214 2.0 4.0 0.00 0.00 0.00 54 1008.7
20260504225208 62 227 2.0 3.0 0.00 0.00 0.00 53 1008.8
20260504224713 62 251 1.0 2.0 0.00 0.00 0.00 53 1008.9
20260504224213 62 194 1.0 3.0 0.00 0.00 0.00 52 1008.9
20260504223717 63 194 1.0 3.0 0.00 0.00 0.00 52 1008.9
20260504223207 63 194 1.0 3.0 0.00 0.00 0.00 52 1009.0
20260504222716 63 195 1.0 3.0 0.00 0.00 0.00 51 1009.0
20260504222212 64 196 2.0 4.0 0.00 0.00 0.00 51 1009.0
20260504221713 64 194 2.0 4.0 0.00 0.00 0.00 50 1009.0
20260504220214 66 252 3.0 6.0 0.00 0.00 0.00 48 1009.1
20260504215713 66 264 3.0 7.0 0.00 0.00 0.00 48 1009.1
20260504215214 66 211 3.0 11.0 0.00 0.00 0.00 48 1009.1
20260504214711 66 181 5.0 12.0 0.00 0.00 0.00 47 1009.1
20260504214208 67 211 6.0 13.0 0.00 0.00 0.00 47 1009.1
20260504213712 67 213 7.0 13.0 0.00 0.00 0.00 47 1009.1
20260504213220 67 209 7.0 15.0 0.00 0.00 0.00 46 1009.1
20260504212736 67 195 7.0 15.0 0.00 0.00 0.00 46 1009.2
20260504212214 67 187 7.0 15.0 0.00 0.00 0.00 46 1009.1
20260504211707 68 202 7.0 15.0 0.00 0.00 0.00 46 1009.3
20260504211219 68 170 8.0 15.0 0.00 0.00 0.00 46 1009.3
20260504210710 68 167 7.0 11.0 0.00 0.00 0.00 46 1009.3
20260504210209 68 184 6.0 12.0 0.00 0.00 0.00 46 1009.3
20260504205716 68 188 5.0 12.0 0.00 0.00 0.00 46 1009.3
20260504205211 68 215 5.0 12.0 0.00 0.00 0.00 46 1009.4
20260504204711 68 190 5.0 12.0 0.00 0.00 0.00 46 1009.5
20260504204215 68 196 6.0 12.0 0.00 0.00 0.00 46 1009.5
20260504203714 68 219 7.0 13.0 0.00 0.00 0.00 46 1009.5
20260504203215 68 217 7.0 13.0 0.00 0.00 0.00 47 1009.4
20260504202717 68 210 9.0 13.0 0.00 0.00 0.00 47 1009.5
20260504202210 68 232 8.0 13.0 0.00 0.00 0.00 47 1009.5
20260504201710 68 232 6.0 10.0 0.00 0.00 0.00 48 1009.6
20260504201206 69 233 3.0 10.0 0.00 0.00 0.00 47 1009.5
20260504200710 69 225 4.0 10.0 0.00 0.00 0.00 47 1009.5
20260504200211 69 157 4.0 9.0 0.00 0.00 0.00 47 1009.6
20260504195205 69 195 5.0 12.0 0.00 0.00 0.00 47 1009.6
20260504194210 70 204 8.0 15.0 0.00 0.00 0.00 46 1009.6
20260504193711 70 190 8.0 15.0 0.00 0.00 0.00 46 1009.6
20260504193205 70 207 8.0 14.0 0.00 0.00 0.00 46 1009.6
20260504192716 70 173 7.0 14.0 0.00 0.00 0.00 45 1009.6
20260504191718 70 192 8.0 17.0 0.00 0.00 0.00 45 1009.6
20260504191212 70 180 10.0 17.0 0.00 0.00 0.00 45 1009.6
20260504185716 69 199 6.0 12.0 0.00 0.00 0.00 44 1009.5
20260504184716 70 138 6.0 10.0 0.00 0.00 0.00 43 1009.5
20260504183708 71 145 6.0 13.0 0.00 0.00 0.00 43 1009.4
20260504183211 71 129 6.0 13.0 0.00 0.00 0.00 42 1009.4
20260504182717 71 165 6.0 13.0 0.00 0.00 0.00 42 1009.3
20260504182210 72 143 7.0 11.0 0.00 0.00 0.00 41 1009.3
20260504181719 72 145 6.0 12.0 0.00 0.00 0.00 41 1009.3
20260504180705 73 157 6.0 12.0 0.00 0.00 0.00 40 1009.2
20260504180215 73 157 6.0 14.0 0.00 0.00 0.00 39 1009.2
20260504175217 74 134 8.0 14.0 0.00 0.00 0.00 39 1009.2
20260504174713 74 159 8.0 17.0 0.00 0.00 0.00 38 1009.1
20260504174206 75 165 8.0 17.0 0.00 0.00 0.00 37 1009.1
20260504173708 75 169 9.0 17.0 0.00 0.00 0.00 37 1009.0
20260504173206 76 174 9.0 17.0 0.00 0.00 0.00 36 1009.0
20260504172711 76 173 9.0 17.0 0.00 0.00 0.00 36 1009.1
20260504172209 76 152 9.0 19.0 0.00 0.00 0.00 35 1009.0
20260504170711 77 173 11.0 21.0 0.00 0.00 0.00 34 1009.1
20260504170211 77 167 12.0 24.0 0.00 0.00 0.00 33 1009.1
20260504160210 79 159 14.0 23.0 0.00 0.00 0.00 28 1009.2
20260504150713 81 176 13.0 22.0 0.00 0.00 0.00 27 1009.5
20260504150217 81 150 12.0 23.0 0.00 0.00 0.00 29 1009.5
20260504141217 82 198 13.0 25.0 0.00 0.00 0.00 25 1009.9
20260504140714 82 211 13.0 25.0 0.00 0.00 0.00 24 1010.0
20260504140214 82 169 13.0 20.0 0.00 0.00 0.00 25 1009.9
20260504130229 83 207 11.0 24.0 0.00 0.00 0.00 25 1010.8
20260504100212 79 155 9.0 13.0 0.00 0.00 0.00 34 1012.6
20260504081714 73 92 5.0 10.0 0.00 0.00 0.00 47 1013.3
20260504081208 72 119 4.0 10.0 0.00 0.00 0.00 47 1013.3
20260504080214 71 90 2.0 9.0 0.00 0.00 0.00 48 1013.3
20260504070215 66 355 3.0 6.0 0.00 0.00 0.00 56 1013.3
20260504050715 55 138 2.0 3.0 0.00 0.00 0.00 71 1012.8
20260504045707 54 138 0.0 1.0 0.00 0.00 0.00 71 1012.8
20260504045217 54 138 0.0 1.0 0.00 0.00 0.00 71 1012.8
20260504044215 54 139 0.0 3.0 0.00 0.00 0.00 70 1012.7
20260504043719 54 139 1.0 4.0 0.00 0.00 0.00 69 1012.7
20260504043215 54 138 2.0 5.0 0.00 0.00 0.00 69 1012.7
20260504042711 54 204 3.0 5.0 0.00 0.00 0.00 68 1012.6
20260504041708 55 245 4.0 5.0 0.00 0.00 0.00 66 1012.6
20260504040707 56 227 2.0 3.0 0.00 0.00 0.00 64 1012.6
20260504040216 57 223 1.0 3.0 0.00 0.00 0.00 62 1012.6
20260504035707 57 233 1.0 5.0 0.00 0.00 0.00 62 1012.6
20260504035215 58 233 1.0 5.0 0.00 0.00 0.00 61 1012.7